Time,TemperatureF,DewpointF,PressureIn,WindDirection,WindDirectionDegrees,WindSpeedMPH,WindSpeedGustMPH,Humidity,HourlyPrecipIn,Conditions,Clouds,dailyrainin,SoftwareType,DateUTC
2013-05-22 00:01:00,71.8,68.4,29.86,South,178,0.0,0.0,89,0.00,,,0.00,Wunderground v.1.15,2013-05-22 04:01:00,
2013-05-22 00:02:00,71.6,68.2,29.86,South,178,0.0,1.0,89,0.00,,,0.00,Wunderground v.1.15,2013-05-22 04:02:00,
2013-05-22 00:04:00,71.6,68.2,29.86,South,178,0.0,1.0,89,0.00,,,0.00,Wunderground v.1.15,2013-05-22 04:04:00,
2013-05-22 00:07:00,71.6,68.5,29.86,South,178,0.0,1.0,90,0.00,,,0.00,Wunderground v.1.15,2013-05-22 04:07:00,
2013-05-22 00:12:00,71.6,68.5,29.86,South,178,0.0,1.0,90,0.00,,,0.00,Wunderground v.1.15,2013-05-22 04:12:00,
2013-05-22 00:17:00,71.5,68.4,29.86,South,175,0.0,1.0,90,0.00,,,0.00,Wunderground v.1.15,2013-05-22 04:17:00,
2013-05-22 00:22:00,71.5,68.4,29.86,South,175,0.0,1.0,90,0.00,,,0.00,Wunderground v.1.15,2013-05-22 04:22:00,
2013-05-22 00:27:00,71.3,68.2,29.86,South,175,0.0,1.0,90,0.00,,,0.00,Wunderground v.1.15,2013-05-22 04:27:00,
2013-05-22 00:33:00,71.3,68.2,29.86,South,175,0.0,1.0,90,0.00,,,0.00,Wunderground v.1.15,2013-05-22 04:33:00,
2013-05-22 00:38:00,71.3,68.5,29.86,South,175,0.0,1.0,91,0.00,,,0.00,Wunderground v.1.15,2013-05-22 04:38:00,
2013-05-22 00:43:00,71.1,68.3,29.86,South,171,0.0,1.0,91,0.00,,,0.00,Wunderground v.1.15,2013-05-22 04:43:00,
2013-05-22 00:48:00,71.1,68.3,29.86,South,171,0.0,1.0,91,0.00,,,0.00,Wunderground v.1.15,2013-05-22 04:48:00,
2013-05-22 00:53:00,71.1,68.3,29.86,South,171,0.0,1.0,91,0.00,,,0.00,Wunderground v.1.15,2013-05-22 04:53:00,
2013-05-22 00:58:00,71.1,68.3,29.86,South,171,0.0,1.0,91,0.00,,,0.00,Wunderground v.1.15,2013-05-22 04:58:00,
2013-05-22 01:04:00,70.9,68.1,29.86,South,191,0.0,1.0,91,0.00,,,0.00,Wunderground v.1.15,2013-05-22 05:04:00,
2013-05-22 01:09:00,70.9,68.5,29.86,South,191,0.0,1.0,92,0.00,,,0.00,Wunderground v.1.15,2013-05-22 05:09:00,
2013-05-22 01:14:00,70.9,68.5,29.85,South,189,0.0,1.0,92,0.00,,,0.00,Wunderground v.1.15,2013-05-22 05:14:00,
2013-05-22 01:20:00,70.8,68.4,29.85,South,188,0.0,1.0,92,0.00,,,0.00,Wunderground v.1.15,2013-05-22 05:20:00,
2013-05-22 01:25:00,70.8,68.4,29.85,South,188,0.0,1.0,92,0.00,,,0.00,Wunderground v.1.15,2013-05-22 05:25:00,
2013-05-22 01:30:00,70.8,68.4,29.85,South,189,0.0,1.0,92,0.00,,,0.00,Wunderground v.1.15,2013-05-22 05:30:00,
2013-05-22 01:35:00,70.8,68.4,29.85,South,188,0.0,1.0,92,0.00,,,0.00,Wunderground v.1.15,2013-05-22 05:35:00,
2013-05-22 01:41:00,70.6,68.2,29.85,South,188,0.0,1.0,92,0.00,,,0.00,Wunderground v.1.15,2013-05-22 05:41:00,
2013-05-22 01:47:00,70.6,68.2,29.84,South,188,0.0,1.0,92,0.00,,,0.00,Wunderground v.1.15,2013-05-22 05:47:00,
2013-05-22 01:52:00,70.6,68.2,29.84,South,172,0.0,1.0,92,0.00,,,0.00,Wunderground v.1.15,2013-05-22 05:52:00,
2013-05-22 01:57:00,70.4,68.0,29.84,South,172,0.0,1.0,92,0.00,,,0.00,Wunderground v.1.15,2013-05-22 05:57:00,
2013-05-22 02:03:00,70.4,68.0,29.83,South,172,0.0,2.0,92,0.00,,,0.00,Wunderground v.1.15,2013-05-22 06:03:00,
2013-05-22 02:08:00,70.4,68.0,29.83,South,172,0.0,2.0,92,0.00,,,0.00,Wunderground v.1.15,2013-05-22 06:08:00,
2013-05-22 02:13:00,70.3,67.9,29.83,South,172,0.0,2.0,92,0.00,,,0.00,Wunderground v.1.15,2013-05-22 06:13:00,
2013-05-22 02:18:00,70.3,67.9,29.83,South,184,0.0,2.0,92,0.00,,,0.00,Wunderground v.1.15,2013-05-22 06:18:00,
2013-05-22 02:23:00,70.3,68.2,29.83,SSE,157,0.0,2.0,93,0.00,,,0.00,Wunderground v.1.15,2013-05-22 06:23:00,
2013-05-22 02:28:00,70.3,68.2,29.83,SSE,158,0.0,2.0,93,0.00,,,0.00,Wunderground v.1.15,2013-05-22 06:28:00,
2013-05-22 02:33:00,70.3,68.2,29.84,SSE,158,0.0,4.0,93,0.00,,,0.00,Wunderground v.1.15,2013-05-22 06:33:00,
2013-05-22 02:38:00,70.3,68.2,29.84,SSE,157,0.0,4.0,93,0.00,,,0.00,Wunderground v.1.15,2013-05-22 06:38:00,
2013-05-22 02:43:00,70.3,68.2,29.84,South,172,0.0,2.0,93,0.00,,,0.00,Wunderground v.1.15,2013-05-22 06:43:00,
2013-05-22 02:48:00,70.3,68.2,29.83,South,172,0.0,2.0,93,0.00,,,0.00,Wunderground v.1.15,2013-05-22 06:48:00,
2013-05-22 02:53:00,70.1,68.3,29.83,South,172,0.0,2.0,94,0.00,,,0.00,Wunderground v.1.15,2013-05-22 06:53:00,
2013-05-22 02:59:00,70.1,68.3,29.83,South,172,0.0,2.0,94,0.00,,,0.00,Wunderground v.1.15,2013-05-22 06:59:00,
2013-05-22 03:04:00,70.1,68.3,29.84,South,172,0.0,6.0,94,0.00,,,0.00,Wunderground v.1.15,2013-05-22 07:04:00,
2013-05-22 03:09:00,70.1,68.3,29.84,South,172,0.0,6.0,94,0.00,,,0.00,Wunderground v.1.15,2013-05-22 07:09:00,
2013-05-22 03:15:00,69.9,67.8,29.84,SSW,198,0.0,6.0,93,0.00,,,0.00,Wunderground v.1.15,2013-05-22 07:15:00,
2013-05-22 03:20:00,70.1,68.0,29.84,SSW,210,0.0,6.0,93,0.00,,,0.00,Wunderground v.1.15,2013-05-22 07:20:00,
2013-05-22 03:25:00,69.9,67.8,29.84,SE,124,0.0,6.0,93,0.00,,,0.00,Wunderground v.1.15,2013-05-22 07:25:00,
2013-05-22 03:30:00,69.9,67.8,29.83,SE,138,0.0,6.0,93,0.00,,,0.00,Wunderground v.1.15,2013-05-22 07:30:00,
2013-05-22 03:36:00,69.9,68.1,29.83,SE,138,0.0,6.0,94,0.00,,,0.00,Wunderground v.1.15,2013-05-22 07:36:00,
2013-05-22 03:41:00,69.9,68.1,29.83,SE,138,0.0,6.0,94,0.00,,,0.00,Wunderground v.1.15,2013-05-22 07:41:00,
2013-05-22 03:46:00,69.9,68.1,29.83,SE,138,0.0,6.0,94,0.00,,,0.00,Wunderground v.1.15,2013-05-22 07:46:00,
2013-05-22 03:51:00,69.8,68.0,29.83,SE,138,0.0,6.0,94,0.00,,,0.00,Wunderground v.1.15,2013-05-22 07:51:00,
2013-05-22 03:56:00,69.8,68.0,29.83,SE,138,0.0,6.0,94,0.00,,,0.00,Wunderground v.1.15,2013-05-22 07:56:00,
2013-05-22 04:02:00,69.8,68.0,29.84,SE,138,0.0,2.0,94,0.00,,,0.00,Wunderground v.1.15,2013-05-22 08:02:00,
2013-05-22 04:07:00,69.8,68.0,29.84,SE,131,0.0,2.0,94,0.00,,,0.00,Wunderground v.1.15,2013-05-22 08:07:00,
2013-05-22 04:13:00,69.8,68.0,29.84,SSW,203,0.0,2.0,94,0.00,,,0.00,Wunderground v.1.15,2013-05-22 08:13:00,
2013-05-22 04:19:00,69.8,68.0,29.83,WNW,288,0.0,2.0,94,0.00,,,0.00,Wunderground v.1.15,2013-05-22 08:19:00,
2013-05-22 04:24:00,69.8,68.3,29.83,South,176,0.0,2.0,95,0.00,,,0.00,Wunderground v.1.15,2013-05-22 08:24:00,
2013-05-22 04:29:00,69.8,68.3,29.83,South,176,0.0,2.0,95,0.00,,,0.00,Wunderground v.1.15,2013-05-22 08:29:00,
2013-05-22 04:34:00,69.8,68.3,29.83,South,176,0.0,2.0,95,0.00,,,0.00,Wunderground v.1.15,2013-05-22 08:34:00,
2013-05-22 04:39:00,69.8,68.3,29.83,South,176,0.0,2.0,95,0.00,,,0.00,Wunderground v.1.15,2013-05-22 08:39:00,
2013-05-22 04:45:00,69.8,68.3,29.83,South,176,0.0,2.0,95,0.00,,,0.00,Wunderground v.1.15,2013-05-22 08:45:00,
2013-05-22 04:50:00,69.6,68.1,29.83,South,176,0.0,2.0,95,0.00,,,0.00,Wunderground v.1.15,2013-05-22 08:50:00,
2013-05-22 04:55:00,69.6,68.1,29.83,South,176,0.0,2.0,95,0.00,,,0.00,Wunderground v.1.15,2013-05-22 08:55:00,
2013-05-22 05:00:00,69.4,67.9,29.83,South,176,0.0,0.0,95,0.00,,,0.00,Wunderground v.1.15,2013-05-22 09:00:00,
2013-05-22 05:06:00,69.4,67.9,29.83,South,176,0.0,2.0,95,0.00,,,0.00,Wunderground v.1.15,2013-05-22 09:06:00,
2013-05-22 05:12:00,69.3,67.8,29.83,South,176,0.0,2.0,95,0.00,,,0.00,Wunderground v.1.15,2013-05-22 09:12:00,
2013-05-22 05:17:00,69.3,67.8,29.83,South,176,0.0,2.0,95,0.00,,,0.00,Wunderground v.1.15,2013-05-22 09:17:00,
2013-05-22 05:22:00,69.1,67.6,29.83,South,176,0.0,2.0,95,0.00,,,0.00,Wunderground v.1.15,2013-05-22 09:22:00,
2013-05-22 05:27:00,69.1,67.6,29.83,South,176,0.0,2.0,95,0.00,,,0.00,Wunderground v.1.15,2013-05-22 09:27:00,
2013-05-22 05:32:00,69.1,67.6,29.83,South,176,0.0,2.0,95,0.00,,,0.00,Wunderground v.1.15,2013-05-22 09:32:00,
2013-05-22 05:37:00,68.9,67.4,29.83,South,176,0.0,2.0,95,0.00,,,0.00,Wunderground v.1.15,2013-05-22 09:37:00,
2013-05-22 05:43:00,68.9,67.4,29.83,South,176,0.0,2.0,95,0.00,,,0.00,Wunderground v.1.15,2013-05-22 09:43:00,
2013-05-22 05:48:00,68.9,67.4,29.84,South,171,0.0,2.0,95,0.00,,,0.00,Wunderground v.1.15,2013-05-22 09:48:00,
2013-05-22 05:53:00,68.9,67.7,29.84,South,171,0.0,2.0,96,0.00,,,0.00,Wunderground v.1.15,2013-05-22 09:53:00,
2013-05-22 05:58:00,69.1,67.9,29.84,SSE,160,0.0,2.0,96,0.00,,,0.00,Wunderground v.1.15,2013-05-22 09:58:00,
2013-05-22 06:04:00,69.3,68.1,29.84,SSE,155,0.0,4.0,96,0.00,,,0.00,Wunderground v.1.15,2013-05-22 10:04:00,
2013-05-22 06:09:00,69.4,68.2,29.84,SSE,157,0.0,4.0,96,0.00,,,0.00,Wunderground v.1.15,2013-05-22 10:09:00,
2013-05-22 06:14:00,69.6,68.4,29.85,SSE,148,0.0,4.0,96,0.00,,,0.00,Wunderground v.1.15,2013-05-22 10:14:00,
2013-05-22 06:19:00,69.6,68.4,29.85,SSE,150,0.0,4.0,96,0.00,,,0.00,Wunderground v.1.15,2013-05-22 10:19:00,
2013-05-22 06:25:00,69.8,68.9,29.85,South,178,0.0,4.0,97,0.00,,,0.00,Wunderground v.1.15,2013-05-22 10:25:00,
2013-05-22 06:30:00,69.9,69.0,29.85,SSW,203,0.0,4.0,97,0.00,,,0.00,Wunderground v.1.15,2013-05-22 10:30:00,
2013-05-22 06:36:00,70.1,69.2,29.85,SSE,148,1.0,4.0,97,0.00,,,0.00,Wunderground v.1.15,2013-05-22 10:36:00,
2013-05-22 06:41:00,70.3,69.4,29.85,SSE,155,1.0,4.0,97,0.00,,,0.00,Wunderground v.1.15,2013-05-22 10:41:00,
2013-05-22 06:46:00,70.3,69.4,29.85,SE,124,1.0,4.0,97,0.00,,,0.00,Wunderground v.1.15,2013-05-22 10:46:00,
2013-05-22 06:51:00,70.4,69.5,29.85,West,270,0.0,4.0,97,0.00,,,0.00,Wunderground v.1.15,2013-05-22 10:51:00,
2013-05-22 06:57:00,70.4,69.5,29.85,SW,217,0.0,4.0,97,0.00,,,0.00,Wunderground v.1.15,2013-05-22 10:57:00,
2013-05-22 07:02:00,70.4,69.5,29.86,South,176,0.0,4.0,97,0.00,,,0.00,Wunderground v.1.15,2013-05-22 11:02:00,
2013-05-22 07:07:00,70.6,69.7,29.86,WNW,294,1.0,4.0,97,0.00,,,0.00,Wunderground v.1.15,2013-05-22 11:07:00,
2013-05-22 07:12:00,70.6,70.0,29.86,NW,312,1.0,4.0,98,0.00,,,0.00,Wunderground v.1.15,2013-05-22 11:12:00,
2013-05-22 07:17:00,70.6,70.0,29.87,SSW,193,1.0,4.0,98,0.00,,,0.00,Wunderground v.1.15,2013-05-22 11:17:00,
2013-05-22 07:23:00,70.6,70.0,29.87,South,174,1.0,4.0,98,0.00,,,0.00,Wunderground v.1.15,2013-05-22 11:23:00,
2013-05-22 07:28:00,70.8,70.2,29.87,WSW,247,0.0,4.0,98,0.00,,,0.00,Wunderground v.1.15,2013-05-22 11:28:00,
2013-05-22 07:33:00,70.8,70.2,29.88,SSW,210,0.0,4.0,98,0.00,,,0.00,Wunderground v.1.15,2013-05-22 11:33:00,
2013-05-22 07:39:00,70.8,70.2,29.88,WSW,248,1.0,4.0,98,0.00,,,0.00,Wunderground v.1.15,2013-05-22 11:39:00,
2013-05-22 07:44:00,70.9,70.3,29.88,West,261,0.0,4.0,98,0.00,,,0.00,Wunderground v.1.15,2013-05-22 11:44:00,
2013-05-22 07:49:00,70.9,70.3,29.89,South,176,1.0,6.0,98,0.00,,,0.00,Wunderground v.1.15,2013-05-22 11:49:00,
2013-05-22 07:54:00,70.9,70.3,29.89,SW,219,1.0,4.0,98,0.00,,,0.00,Wunderground v.1.15,2013-05-22 11:54:00,
2013-05-22 07:59:00,71.1,70.5,29.90,SSE,168,1.0,6.0,98,0.00,,,0.00,Wunderground v.1.15,2013-05-22 11:59:00,
2013-05-22 08:05:00,71.1,70.5,29.90,SSE,160,1.0,8.0,98,0.00,,,0.00,Wunderground v.1.15,2013-05-22 12:05:00,
2013-05-22 08:10:00,71.3,71.0,29.90,South,181,1.0,1.0,99,0.00,,,0.00,Wunderground v.1.15,2013-05-22 12:10:00,
2013-05-22 08:15:00,71.6,71.3,29.89,SSW,213,1.0,8.0,99,0.00,,,0.00,Wunderground v.1.15,2013-05-22 12:15:00,
2013-05-22 08:20:00,71.8,71.2,29.89,SSE,161,0.0,8.0,98,0.00,,,0.00,Wunderground v.1.15,2013-05-22 12:20:00,
2013-05-22 08:25:00,72.1,71.5,29.89,South,171,1.0,8.0,98,0.00,,,0.00,Wunderground v.1.15,2013-05-22 12:25:00,
2013-05-22 08:30:00,72.3,71.4,29.89,ESE,119,1.0,8.0,97,0.00,,,0.00,Wunderground v.1.15,2013-05-22 12:30:00,
2013-05-22 08:35:00,72.7,71.5,29.89,SSE,151,1.0,8.0,96,0.00,,,0.00,Wunderground v.1.15,2013-05-22 12:35:00,
2013-05-22 08:41:00,73.0,71.8,29.89,SSW,195,1.0,8.0,96,0.00,,,0.00,Wunderground v.1.15,2013-05-22 12:41:00,
2013-05-22 08:46:00,73.0,71.2,29.90,WNW,294,1.0,8.0,94,0.00,,,0.00,Wunderground v.1.15,2013-05-22 12:46:00,
2013-05-22 08:52:00,73.3,71.2,29.90,South,178,0.0,8.0,93,0.00,,,0.00,Wunderground v.1.15,2013-05-22 12:52:00,
2013-05-22 08:57:00,73.5,71.4,29.90,WNW,285,1.0,8.0,93,0.00,,,0.00,Wunderground v.1.15,2013-05-22 12:57:00,
2013-05-22 09:03:00,73.7,70.9,29.90,WSW,243,1.0,7.0,91,0.00,,,0.00,Wunderground v.1.15,2013-05-22 13:03:00,
2013-05-22 09:08:00,73.7,70.6,29.90,West,260,1.0,7.0,90,0.00,,,0.00,Wunderground v.1.15,2013-05-22 13:08:00,
2013-05-22 09:13:00,74.0,70.6,29.90,WNW,288,1.0,7.0,89,0.00,,,0.00,Wunderground v.1.15,2013-05-22 13:13:00,
2013-05-22 09:18:00,74.6,71.1,29.90,SW,233,2.0,7.0,89,0.00,,,0.00,Wunderground v.1.15,2013-05-22 13:18:00,
2013-05-22 09:23:00,74.7,70.6,29.90,West,272,1.0,7.0,87,0.00,,,0.00,Wunderground v.1.15,2013-05-22 13:23:00,
2013-05-22 09:29:00,74.9,70.8,29.90,South,189,1.0,7.0,87,0.00,,,0.00,Wunderground v.1.15,2013-05-22 13:29:00,
2013-05-22 09:34:00,75.1,70.6,29.90,South,171,1.0,7.0,86,0.00,,,0.00,Wunderground v.1.15,2013-05-22 13:34:00,
2013-05-22 09:39:00,75.3,70.5,29.90,SSE,158,1.0,7.0,85,0.00,,,0.00,Wunderground v.1.15,2013-05-22 13:39:00,
2013-05-22 09:45:00,75.6,70.4,29.90,SSW,193,1.0,7.0,84,0.00,,,0.00,Wunderground v.1.15,2013-05-22 13:45:00,
2013-05-22 09:51:00,76.0,70.5,29.90,SSE,154,1.0,7.0,83,0.00,,,0.00,Wunderground v.1.15,2013-05-22 13:51:00,
2013-05-22 09:56:00,76.3,70.8,29.90,SSW,193,1.0,9.0,83,0.00,,,0.00,Wunderground v.1.15,2013-05-22 13:56:00,
2013-05-22 10:02:00,76.1,70.6,29.90,SSW,196,2.0,2.0,83,0.00,,,0.00,Wunderground v.1.15,2013-05-22 14:02:00,
2013-05-22 10:08:00,76.3,70.4,29.90,SSW,209,2.0,10.0,82,0.00,,,0.00,Wunderground v.1.15,2013-05-22 14:08:00,
2013-05-22 10:14:00,76.1,70.2,29.90,SSW,206,2.0,10.0,82,0.00,,,0.00,Wunderground v.1.15,2013-05-22 14:14:00,
2013-05-22 10:19:00,76.3,70.4,29.90,SSW,202,3.0,3.0,82,0.00,,,0.00,Wunderground v.1.15,2013-05-22 14:19:00,
2013-05-22 10:24:00,76.7,70.4,29.90,SE,140,4.0,10.0,81,0.00,,,0.00,Wunderground v.1.15,2013-05-22 14:24:00,
2013-05-22 10:30:00,77.0,70.7,29.90,SSE,157,4.0,10.0,81,0.00,,,0.00,Wunderground v.1.15,2013-05-22 14:30:00,
2013-05-22 10:36:00,77.2,70.5,29.90,SSE,151,2.0,10.0,80,0.00,,,0.00,Wunderground v.1.15,2013-05-22 14:36:00,
2013-05-22 10:41:00,77.4,70.7,29.90,SSE,162,3.0,10.0,80,0.00,,,0.00,Wunderground v.1.15,2013-05-22 14:41:00,
2013-05-22 10:46:00,77.9,70.9,29.90,South,188,2.0,10.0,79,0.00,,,0.00,Wunderground v.1.15,2013-05-22 14:46:00,
2013-05-22 10:51:00,77.9,70.5,29.90,SSE,155,1.0,10.0,78,0.00,,,0.00,Wunderground v.1.15,2013-05-22 14:51:00,
2013-05-22 10:57:00,78.5,71.1,29.90,SE,134,1.0,10.0,78,0.00,,,0.00,Wunderground v.1.15,2013-05-22 14:57:00,
2013-05-22 11:03:00,78.8,71.0,29.90,South,175,1.0,1.0,77,0.00,,,0.00,Wunderground v.1.15,2013-05-22 15:03:00,
2013-05-22 11:09:00,78.6,71.2,29.90,SSE,148,2.0,2.0,78,0.00,,,0.00,Wunderground v.1.15,2013-05-22 15:09:00,
2013-05-22 11:15:00,79.2,72.1,29.90,South,172,2.0,7.0,79,0.00,,,0.00,Wunderground v.1.15,2013-05-22 15:15:00,
2013-05-22 11:21:00,78.8,71.0,29.90,South,179,2.0,7.0,77,0.00,,,0.00,Wunderground v.1.15,2013-05-22 15:21:00,
2013-05-22 11:26:00,79.4,71.9,29.90,South,181,1.0,7.0,78,0.00,,,0.00,Wunderground v.1.15,2013-05-22 15:26:00,
2013-05-22 11:32:00,79.4,71.2,29.90,South,186,2.0,7.0,76,0.00,,,0.00,Wunderground v.1.15,2013-05-22 15:32:00,
2013-05-22 11:37:00,79.6,71.4,29.90,ESE,120,2.0,7.0,76,0.00,,,0.00,Wunderground v.1.15,2013-05-22 15:37:00,
2013-05-22 11:42:00,80.3,71.6,29.90,South,169,3.0,8.0,75,0.00,,,0.00,Wunderground v.1.15,2013-05-22 15:42:00,
2013-05-22 11:48:00,80.5,71.4,29.89,SSE,158,3.0,8.0,74,0.00,,,0.00,Wunderground v.1.15,2013-05-22 15:48:00,
2013-05-22 11:53:00,81.4,72.3,29.89,WSW,257,2.0,8.0,74,0.00,,,0.00,Wunderground v.1.15,2013-05-22 15:53:00,
2013-05-22 11:59:00,81.6,71.7,29.88,SSE,160,2.0,8.0,72,0.00,,,0.00,Wunderground v.1.15,2013-05-22 15:59:00,
2013-05-22 12:06:00,81.2,72.5,29.88,SSE,155,3.0,8.0,75,0.00,,,0.00,Wunderground v.1.15,2013-05-22 16:06:00,
2013-05-22 12:11:00,81.2,71.7,29.88,South,184,2.0,7.0,73,0.00,,,0.00,Wunderground v.1.15,2013-05-22 16:11:00,
2013-05-22 12:17:00,81.8,71.1,29.88,WSW,241,2.0,11.0,70,0.00,,,0.00,Wunderground v.1.15,2013-05-22 16:17:00,
2013-05-22 12:23:00,82.4,72.5,29.88,SSE,168,1.0,11.0,72,0.00,,,0.00,Wunderground v.1.15,2013-05-22 16:23:00,
2013-05-22 12:28:00,82.4,72.0,29.88,WSW,240,2.0,11.0,71,0.00,,,0.00,Wunderground v.1.15,2013-05-22 16:28:00,
2013-05-22 12:34:00,82.4,71.6,29.88,South,185,2.0,11.0,70,0.00,,,0.00,Wunderground v.1.15,2013-05-22 16:34:00,
2013-05-22 12:39:00,82.6,71.4,29.88,South,172,3.0,11.0,69,0.00,,,0.00,Wunderground v.1.15,2013-05-22 16:39:00,
2013-05-22 12:45:00,83.4,72.6,29.88,WSW,258,3.0,11.0,70,0.00,,,0.00,Wunderground v.1.15,2013-05-22 16:45:00,
2013-05-22 12:50:00,83.2,71.1,29.88,SSW,199,2.0,11.0,67,0.00,,,0.00,Wunderground v.1.15,2013-05-22 16:50:00,
2013-05-22 12:56:00,83.0,72.2,29.88,South,186,2.0,11.0,70,0.00,,,0.00,Wunderground v.1.15,2013-05-22 16:56:00,
2013-05-22 13:02:00,82.4,70.8,29.88,SSE,160,2.0,9.0,68,0.00,,,0.00,Wunderground v.1.15,2013-05-22 17:02:00,
2013-05-22 13:07:00,83.0,72.2,29.88,South,178,2.0,9.0,70,0.00,,,0.00,Wunderground v.1.15,2013-05-22 17:07:00,
2013-05-22 13:13:00,83.2,71.1,29.88,SSE,160,2.0,9.0,67,0.00,,,0.00,Wunderground v.1.15,2013-05-22 17:13:00,
2013-05-22 13:18:00,83.2,71.1,29.87,SSW,203,2.0,9.0,67,0.00,,,0.00,Wunderground v.1.15,2013-05-22 17:18:00,
2013-05-22 13:23:00,83.0,70.9,29.87,South,186,3.0,9.0,67,0.00,,,0.00,Wunderground v.1.15,2013-05-22 17:23:00,
2013-05-22 13:29:00,83.4,72.2,29.87,SSE,154,2.0,10.0,69,0.00,,,0.00,Wunderground v.1.15,2013-05-22 17:29:00,
2013-05-22 13:34:00,83.4,71.3,29.87,South,185,2.0,10.0,67,0.00,,,0.00,Wunderground v.1.15,2013-05-22 17:34:00,
2013-05-22 13:40:00,83.6,71.9,29.87,SSE,151,3.0,9.0,68,0.00,,,0.00,Wunderground v.1.15,2013-05-22 17:40:00,
2013-05-22 13:45:00,83.6,71.9,29.86,WSW,257,3.0,9.0,68,0.00,,,0.00,Wunderground v.1.15,2013-05-22 17:45:00,
2013-05-22 13:50:00,83.8,72.1,29.86,SSW,195,2.0,9.0,68,0.00,,,0.00,Wunderground v.1.15,2013-05-22 17:50:00,
2013-05-22 13:58:00,84.1,72.0,29.86,SSE,168,1.0,9.0,67,0.00,,,0.00,Wunderground v.1.15,2013-05-22 17:58:00,
2013-05-22 14:04:00,84.7,72.5,29.85,South,189,2.0,7.0,67,0.00,,,0.00,Wunderground v.1.15,2013-05-22 18:04:00,
2013-05-22 14:09:00,84.3,72.1,29.85,SSE,164,2.0,7.0,67,0.00,,,0.00,Wunderground v.1.15,2013-05-22 18:09:00,
2013-05-22 14:15:00,84.3,72.1,29.85,South,175,2.0,7.0,67,0.00,,,0.00,Wunderground v.1.15,2013-05-22 18:15:00,
2013-05-22 14:21:00,84.7,71.2,29.85,SE,136,3.0,7.0,64,0.00,,,0.00,Wunderground v.1.15,2013-05-22 18:21:00,
2013-05-22 14:26:00,85.1,72.9,29.85,SE,127,3.0,7.0,67,0.00,,,0.00,Wunderground v.1.15,2013-05-22 18:26:00,
2013-05-22 14:31:00,84.9,71.4,29.85,South,188,3.0,7.0,64,0.00,,,0.00,Wunderground v.1.15,2013-05-22 18:31:00,
2013-05-22 14:37:00,84.7,71.2,29.85,WNW,288,4.0,7.0,64,0.00,,,0.00,Wunderground v.1.15,2013-05-22 18:37:00,
2013-05-22 14:43:00,85.1,72.0,29.85,SW,219,3.0,7.0,65,0.00,,,0.00,Wunderground v.1.15,2013-05-22 18:43:00,
2013-05-22 14:48:00,85.3,71.3,29.84,South,175,2.0,7.0,63,0.00,,,0.00,Wunderground v.1.15,2013-05-22 18:48:00,
2013-05-22 14:53:00,84.9,71.8,29.84,SE,145,3.0,7.0,65,0.00,,,0.00,Wunderground v.1.15,2013-05-22 18:53:00,
2013-05-22 14:58:00,85.5,71.0,29.84,NNW,337,2.0,10.0,62,0.00,,,0.00,Wunderground v.1.15,2013-05-22 18:58:00,
2013-05-22 15:04:00,85.5,71.5,29.84,SSE,155,2.0,11.0,63,0.00,,,0.00,Wunderground v.1.15,2013-05-22 19:04:00,
2013-05-22 15:10:00,85.5,70.5,29.84,South,181,3.0,11.0,61,0.00,,,0.00,Wunderground v.1.15,2013-05-22 19:10:00,
2013-05-22 15:16:00,85.5,71.0,29.84,WNW,291,4.0,11.0,62,0.00,,,0.00,Wunderground v.1.15,2013-05-22 19:16:00,
2013-05-22 15:21:00,85.5,70.5,29.84,South,178,3.0,11.0,61,0.00,,,0.00,Wunderground v.1.15,2013-05-22 19:21:00,
2013-05-22 15:26:00,85.7,70.7,29.84,SSW,198,3.0,11.0,61,0.00,,,0.00,Wunderground v.1.15,2013-05-22 19:26:00,
2013-05-22 15:32:00,85.9,72.3,29.83,SE,138,3.0,3.0,64,0.00,,,0.00,Wunderground v.1.15,2013-05-22 19:32:00,
2013-05-22 15:38:00,85.5,70.0,29.83,SSW,195,3.0,9.0,60,0.00,,,0.00,Wunderground v.1.15,2013-05-22 19:38:00,
2013-05-22 15:43:00,85.5,70.5,29.83,SSE,167,3.0,9.0,61,0.00,,,0.00,Wunderground v.1.15,2013-05-22 19:43:00,
2013-05-22 15:48:00,85.7,70.7,29.83,SSE,158,3.0,9.0,61,0.00,,,0.00,Wunderground v.1.15,2013-05-22 19:48:00,
2013-05-22 15:54:00,85.3,69.8,29.83,SSW,212,4.0,9.0,60,0.00,,,0.00,Wunderground v.1.15,2013-05-22 19:54:00,
2013-05-22 15:59:00,85.3,69.8,29.83,SE,144,4.0,9.0,60,0.00,,,0.00,Wunderground v.1.15,2013-05-22 19:59:00,
2013-05-22 16:04:00,85.1,70.6,29.82,ESE,107,4.0,11.0,62,0.00,,,0.00,Wunderground v.1.15,2013-05-22 20:04:00,
2013-05-22 16:09:00,85.3,70.8,29.82,South,175,3.0,11.0,62,0.00,,,0.00,Wunderground v.1.15,2013-05-22 20:09:00,
2013-05-22 16:14:00,85.5,70.5,29.81,SSE,148,4.0,11.0,61,0.00,,,0.00,Wunderground v.1.15,2013-05-22 20:14:00,
2013-05-22 16:19:00,85.5,70.5,29.81,South,176,3.0,11.0,61,0.00,,,0.00,Wunderground v.1.15,2013-05-22 20:19:00,
2013-05-22 16:25:00,85.7,70.7,29.81,SE,126,3.0,11.0,61,0.00,,,0.00,Wunderground v.1.15,2013-05-22 20:25:00,
2013-05-22 16:30:00,85.7,69.7,29.81,SSW,202,2.0,11.0,59,0.00,,,0.00,Wunderground v.1.15,2013-05-22 20:30:00,
2013-05-22 16:35:00,85.7,69.2,29.81,SSW,210,4.0,11.0,58,0.00,,,0.00,Wunderground v.1.15,2013-05-22 20:35:00,
2013-05-22 16:40:00,85.7,69.7,29.81,SSE,168,4.0,4.0,59,0.00,,,0.00,Wunderground v.1.15,2013-05-22 20:40:00,
2013-05-22 16:45:00,85.7,70.7,29.81,South,178,2.0,11.0,61,0.00,,,0.00,Wunderground v.1.15,2013-05-22 20:45:00,
2013-05-22 16:50:00,85.7,69.7,29.81,SSE,147,2.0,11.0,59,0.00,,,0.00,Wunderground v.1.15,2013-05-22 20:50:00,
2013-05-22 16:55:00,85.3,69.8,29.81,SE,141,3.0,11.0,60,0.00,,,0.00,Wunderground v.1.15,2013-05-22 20:55:00,
2013-05-22 17:00:00,85.3,69.8,29.80,South,169,3.0,3.0,60,0.00,,,0.00,Wunderground v.1.15,2013-05-22 21:00:00,
2013-05-22 17:06:00,85.1,69.2,29.80,ESE,119,3.0,9.0,59,0.00,,,0.00,Wunderground v.1.15,2013-05-22 21:06:00,
2013-05-22 17:11:00,85.3,68.8,29.80,South,172,4.0,9.0,58,0.00,,,0.00,Wunderground v.1.15,2013-05-22 21:11:00,
2013-05-22 17:16:00,84.9,69.5,29.80,SSW,195,4.0,9.0,60,0.00,,,0.00,Wunderground v.1.15,2013-05-22 21:16:00,
2013-05-22 17:21:00,84.9,69.5,29.80,SSW,210,4.0,9.0,60,0.00,,,0.00,Wunderground v.1.15,2013-05-22 21:21:00,
2013-05-22 17:26:00,85.1,69.7,29.80,SSW,205,3.0,9.0,60,0.00,,,0.00,Wunderground v.1.15,2013-05-22 21:26:00,
2013-05-22 17:31:00,84.9,69.9,29.80,South,184,4.0,9.0,61,0.00,,,0.00,Wunderground v.1.15,2013-05-22 21:31:00,
2013-05-22 17:36:00,85.1,70.6,29.80,WSW,256,3.0,9.0,62,0.00,,,0.00,Wunderground v.1.15,2013-05-22 21:36:00,
2013-05-22 17:41:00,84.9,69.5,29.80,SSW,195,2.0,9.0,60,0.00,,,0.00,Wunderground v.1.15,2013-05-22 21:41:00,
2013-05-22 17:46:00,84.7,69.8,29.80,SW,215,3.0,9.0,61,0.00,,,0.00,Wunderground v.1.15,2013-05-22 21:46:00,
2013-05-22 17:51:00,84.7,69.8,29.80,SSW,212,4.0,9.0,61,0.00,,,0.00,Wunderground v.1.15,2013-05-22 21:51:00,
2013-05-22 17:56:00,84.7,69.8,29.80,South,175,4.0,9.0,61,0.00,,,0.00,Wunderground v.1.15,2013-05-22 21:56:00,
2013-05-22 18:01:00,84.7,69.3,29.80,South,176,4.0,11.0,60,0.00,,,0.00,Wunderground v.1.15,2013-05-22 22:01:00,
2013-05-22 18:07:00,84.5,69.6,29.80,SSW,206,4.0,11.0,61,0.00,,,0.00,Wunderground v.1.15,2013-05-22 22:07:00,
2013-05-22 18:13:00,84.5,69.6,29.80,SSW,199,4.0,11.0,61,0.00,,,0.00,Wunderground v.1.15,2013-05-22 22:13:00,
2013-05-22 18:18:00,84.3,69.4,29.80,SSW,193,3.0,11.0,61,0.00,,,0.00,Wunderground v.1.15,2013-05-22 22:18:00,
2013-05-22 18:23:00,84.1,69.2,29.80,SSE,160,2.0,11.0,61,0.00,,,0.00,Wunderground v.1.15,2013-05-22 22:23:00,
2013-05-22 18:28:00,84.1,69.7,29.80,SSW,212,2.0,11.0,62,0.00,,,0.00,Wunderground v.1.15,2013-05-22 22:28:00,
2013-05-22 18:34:00,84.0,69.1,29.80,South,171,3.0,11.0,61,0.00,,,0.00,Wunderground v.1.15,2013-05-22 22:34:00,
2013-05-22 18:39:00,83.8,68.9,29.80,SE,145,3.0,11.0,61,0.00,,,0.00,Wunderground v.1.15,2013-05-22 22:39:00,
2013-05-22 18:45:00,83.8,69.4,29.81,SSW,193,5.0,11.0,62,0.00,,,0.00,Wunderground v.1.15,2013-05-22 22:45:00,
2013-05-22 18:50:00,83.6,69.7,29.81,South,191,4.0,4.0,63,0.00,,,0.00,Wunderground v.1.15,2013-05-22 22:50:00,
2013-05-22 18:56:00,83.4,69.5,29.81,South,179,3.0,11.0,63,0.00,,,0.00,Wunderground v.1.15,2013-05-22 22:56:00,
2013-05-22 19:01:00,83.2,69.3,29.81,SSW,202,4.0,13.0,63,0.00,,,0.00,Wunderground v.1.15,2013-05-22 23:01:00,
2013-05-22 19:06:00,82.8,69.4,29.81,South,171,4.0,13.0,64,0.00,,,0.00,Wunderground v.1.15,2013-05-22 23:06:00,
2013-05-22 19:11:00,82.8,69.4,29.81,South,181,3.0,13.0,64,0.00,,,0.00,Wunderground v.1.15,2013-05-22 23:11:00,
2013-05-22 19:16:00,82.6,69.6,29.81,South,169,3.0,13.0,65,0.00,,,0.00,Wunderground v.1.15,2013-05-22 23:16:00,
2013-05-22 19:21:00,82.4,69.4,29.81,SSW,203,3.0,13.0,65,0.00,,,0.00,Wunderground v.1.15,2013-05-22 23:21:00,
2013-05-22 19:26:00,82.2,69.7,29.81,SSW,192,3.0,13.0,66,0.00,,,0.00,Wunderground v.1.15,2013-05-22 23:26:00,
2013-05-22 19:32:00,81.8,69.8,29.81,SSW,193,3.0,13.0,67,0.00,,,0.00,Wunderground v.1.15,2013-05-22 23:32:00,
2013-05-22 19:37:00,81.6,69.6,29.81,SSW,196,3.0,13.0,67,0.00,,,0.00,Wunderground v.1.15,2013-05-22 23:37:00,
2013-05-22 19:42:00,81.6,69.6,29.81,South,184,3.0,13.0,67,0.00,,,0.00,Wunderground v.1.15,2013-05-22 23:42:00,
2013-05-22 19:48:00,81.4,69.8,29.81,SSW,192,3.0,13.0,68,0.00,,,0.00,Wunderground v.1.15,2013-05-22 23:48:00,
2013-05-22 19:53:00,81.2,69.6,29.81,South,179,1.0,13.0,68,0.00,,,0.00,Wunderground v.1.15,2013-05-22 23:53:00,
2013-05-22 19:58:00,81.1,70.0,29.81,SSE,154,2.0,13.0,69,0.00,,,0.00,Wunderground v.1.15,2013-05-22 23:58:00,
2013-05-22 20:04:00,80.9,69.8,29.81,South,184,2.0,14.0,69,0.00,,,0.00,Wunderground v.1.15,2013-05-23 00:04:00,
2013-05-22 20:09:00,80.7,70.0,29.81,SSW,196,2.0,14.0,70,0.00,,,0.00,Wunderground v.1.15,2013-05-23 00:09:00,
2013-05-22 20:14:00,80.5,69.8,29.81,SSE,161,2.0,14.0,70,0.00,,,0.00,Wunderground v.1.15,2013-05-23 00:14:00,
2013-05-22 20:19:00,80.3,69.6,29.82,WSW,237,2.0,14.0,70,0.00,,,0.00,Wunderground v.1.15,2013-05-23 00:19:00,
2013-05-22 20:24:00,80.3,69.6,29.82,South,174,3.0,14.0,70,0.00,,,0.00,Wunderground v.1.15,2013-05-23 00:24:00,
2013-05-22 20:29:00,80.1,69.8,29.82,South,182,2.0,14.0,71,0.00,,,0.00,Wunderground v.1.15,2013-05-23 00:29:00,
2013-05-22 20:34:00,80.1,69.8,29.82,SSW,206,1.0,14.0,71,0.00,,,0.00,Wunderground v.1.15,2013-05-23 00:34:00,
2013-05-22 20:39:00,79.8,70.0,29.82,South,174,1.0,14.0,72,0.00,,,0.00,Wunderground v.1.15,2013-05-23 00:39:00,
2013-05-22 20:44:00,79.6,69.8,29.82,SSW,205,1.0,14.0,72,0.00,,,0.00,Wunderground v.1.15,2013-05-23 00:44:00,
2013-05-22 20:49:00,79.4,70.0,29.83,SSW,212,1.0,14.0,73,0.00,,,0.00,Wunderground v.1.15,2013-05-23 00:49:00,
2013-05-22 20:54:00,79.2,69.8,29.83,SSE,168,1.0,14.0,73,0.00,,,0.00,Wunderground v.1.15,2013-05-23 00:54:00,
2013-05-22 20:59:00,79.0,69.6,29.84,SSE,164,1.0,14.0,73,0.00,,,0.00,Wunderground v.1.15,2013-05-23 00:59:00,
2013-05-22 21:05:00,78.6,69.6,29.84,South,181,0.0,7.0,74,0.00,,,0.00,Wunderground v.1.15,2013-05-23 01:05:00,
2013-05-22 21:10:00,78.6,69.6,29.84,South,175,0.0,7.0,74,0.00,,,0.00,Wunderground v.1.15,2013-05-23 01:10:00,
2013-05-22 21:15:00,78.5,69.9,29.85,SSW,193,0.0,7.0,75,0.00,,,0.00,Wunderground v.1.15,2013-05-23 01:15:00,
2013-05-22 21:20:00,78.5,69.9,29.85,SE,137,0.0,7.0,75,0.00,,,0.00,Wunderground v.1.15,2013-05-23 01:20:00,
2013-05-22 21:25:00,78.3,69.7,29.85,SE,137,0.0,7.0,75,0.00,,,0.00,Wunderground v.1.15,2013-05-23 01:25:00,
2013-05-22 21:30:00,78.1,69.9,29.85,SE,137,0.0,7.0,76,0.00,,,0.00,Wunderground v.1.15,2013-05-23 01:30:00,
2013-05-22 21:36:00,77.9,70.1,29.85,SE,137,0.0,7.0,77,0.00,,,0.00,Wunderground v.1.15,2013-05-23 01:36:00,
2013-05-22 21:41:00,77.9,70.1,29.85,SE,137,0.0,7.0,77,0.00,,,0.00,Wunderground v.1.15,2013-05-23 01:41:00,
2013-05-22 21:47:00,78.1,69.9,29.85,SE,137,0.0,7.0,76,0.00,,,0.00,Wunderground v.1.15,2013-05-23 01:47:00,
2013-05-22 21:52:00,77.6,67.9,29.85,SE,137,0.0,7.0,72,0.00,,,0.00,Wunderground v.1.15,2013-05-23 01:52:00,
2013-05-22 21:57:00,77.4,66.8,29.85,NE,47,0.0,7.0,70,0.00,,,0.00,Wunderground v.1.15,2013-05-23 01:57:00,
2013-05-22 22:02:00,77.2,66.7,29.86,NE,34,0.0,2.0,70,0.00,,,0.00,Wunderground v.1.15,2013-05-23 02:02:00,
2013-05-22 22:07:00,77.2,66.7,29.86,NNW,339,0.0,2.0,70,0.00,,,0.00,Wunderground v.1.15,2013-05-23 02:07:00,
2013-05-22 22:12:00,77.0,66.5,29.86,SW,217,2.0,9.0,70,0.00,,,0.00,Wunderground v.1.15,2013-05-23 02:12:00,
2013-05-22 22:18:00,76.8,64.6,29.87,NNW,333,3.0,10.0,66,0.00,,,0.00,Wunderground v.1.15,2013-05-23 02:18:00,
2013-05-22 22:24:00,76.7,64.0,29.87,WNW,282,3.0,3.0,65,0.00,,,0.00,Wunderground v.1.15,2013-05-23 02:24:00,
2013-05-22 22:29:00,76.5,64.3,29.87,WNW,292,2.0,6.0,66,0.00,,,0.01,Wunderground v.1.15,2013-05-23 02:29:00,
2013-05-22 22:34:00,76.3,65.4,29.89,NNW,343,2.0,6.0,69,0.00,,,0.01,Wunderground v.1.15,2013-05-23 02:34:00,
2013-05-22 22:39:00,76.1,66.0,29.89,North,0,1.0,6.0,71,0.07,,,0.02,Wunderground v.1.15,2013-05-23 02:39:00,
2013-05-22 22:44:00,75.6,65.5,29.88,WNW,302,0.0,2.0,71,0.07,,,0.02,Wunderground v.1.15,2013-05-23 02:44:00,
2013-05-22 22:49:00,75.1,65.5,29.88,West,261,0.0,2.0,72,0.05,,,0.02,Wunderground v.1.15,2013-05-23 02:49:00,
2013-05-22 22:54:00,74.7,65.5,29.88,NNW,335,0.0,2.0,73,0.00,,,0.02,Wunderground v.1.15,2013-05-23 02:54:00,
2013-05-22 22:59:00,74.2,65.4,29.87,NNW,335,0.0,2.0,74,0.00,,,0.02,Wunderground v.1.15,2013-05-23 02:59:00,
2013-05-22 23:05:00,73.7,65.3,29.87,NNW,335,0.0,6.0,75,0.00,,,0.02,Wunderground v.1.15,2013-05-23 03:05:00,
2013-05-22 23:10:00,73.3,65.3,29.87,NNW,335,0.0,6.0,76,0.00,,,0.02,Wunderground v.1.15,2013-05-23 03:10:00,
2013-05-22 23:16:00,72.8,65.2,29.87,NNW,335,0.0,6.0,77,0.00,,,0.02,Wunderground v.1.15,2013-05-23 03:16:00,
2013-05-22 23:22:00,72.5,65.2,29.87,NNW,335,0.0,6.0,78,0.00,,,0.02,Wunderground v.1.15,2013-05-23 03:22:00,
2013-05-22 23:27:00,72.1,65.2,29.87,NNW,335,0.0,6.0,79,0.00,,,0.02,Wunderground v.1.15,2013-05-23 03:27:00,
2013-05-22 23:33:00,71.8,64.9,29.87,NNW,335,0.0,6.0,79,0.00,,,0.02,Wunderground v.1.15,2013-05-23 03:33:00,
2013-05-22 23:38:00,71.5,65.4,29.87,NNW,335,0.0,6.0,81,0.00,,,0.02,Wunderground v.1.15,2013-05-23 03:38:00,
2013-05-22 23:43:00,71.3,65.2,29.87,NNW,335,0.0,6.0,81,0.00,,,0.02,Wunderground v.1.15,2013-05-23 03:43:00,
2013-05-22 23:48:00,70.9,65.1,29.87,NNW,335,0.0,6.0,82,0.00,,,0.02,Wunderground v.1.15,2013-05-23 03:48:00,
2013-05-22 23:53:00,70.8,65.4,29.87,NNW,335,0.0,6.0,83,0.00,,,0.02,Wunderground v.1.15,2013-05-23 03:53:00,
2013-05-22 23:59:00,70.6,65.2,29.87,NNW,335,0.0,6.0,83,0.00,,,0.02,Wunderground v.1.15,2013-05-23 03:59:00,